Weather History for Huntingburg, IN

Change the Weather History Date:

Saturday, November 19, 2011

  Actual Average Record
Temperature  
Mean Temperature 52 °F -  
Max Temperature 62 °F 52 °F 64 °F (1999)
Min Temperature 42 °F 36 °F 21 °F (2008)
Degree Days  
Heating Degree Days 13    
Growing Degree Days 2 (Base 50)    
Moisture  
Dew Point 36 °F    
Average Humidity 53    
Maximum Humidity 63    
Minimum Humidity 46    
Precipitation  
Precipitation 0.00 in - - ()
Sea Level Pressure  
Sea Level Pressure 30.08 in    
Wind  
Wind Speed 15 mph (SE)    
Max Wind Speed 23 mph    
Max Gust Speed 34 mph    
Visibility 10 miles    
Events      
Averages and records for this station are not official NWS values.
T = Trace of Precipitation, MM = Missing Value Source: NWS Daily Summary

Daily Weather History Graph

Daily Weather History Graph

Search for Another Location

Airport:

Trip Planner

Search our weather history database for the weather conditions in past years. The results will help you decide how hot, cold, wet, or windy it might be!

Date:

Astronomy

Nov. 19, 2011 Rise Set
Actual Time 7:33 AM EST 5:32 PM EST
Civil Twilight 7:04 AM EST 6:01 PM EST
Nautical Twilight 6:32 AM EST 6:33 PM EST
Astronomical Twilight 6:01 AM EST 7:04 PM EST
Moon 12:58 AM EST 1:45 PM EST
Length of Visible Light 10h 56m
Length of Day
9h 59m
Last Quarter, 38% of the Moon is Illuminated
Nov 19
Last Quarter
Nov 25
New
Dec 2
First Quarter
Dec 10
Full
Dec 17
Last Quarter

Hourly Weather History & Observations

Time (EST) Temp. Windchill Dew Point Humidity Pressure Visibility Wind Dir Wind Speed Gust Speed Precip Events Conditions
12:15 AM 44.6 °F 37.2 °F 26.6 °F 49% 30.13 in 10.0 mi SSE 17.3 mph - N/A   Clear
12:35 AM 46.4 °F 39.8 °F 26.6 °F 46% 30.13 in 10.0 mi SSE 16.1 mph - N/A   Clear
12:55 AM 46.4 °F 39.8 °F 26.6 °F 46% 30.12 in 10.0 mi SSE 16.1 mph - N/A   Clear
1:15 AM 46.4 °F 39.8 °F 26.6 °F 46% 30.12 in 10.0 mi SE 16.1 mph 23.0 mph N/A   Clear
1:35 AM 44.6 °F 37.4 °F 26.6 °F 49% 30.12 in 10.0 mi SSE 16.1 mph - N/A   Clear
1:55 AM 44.6 °F 37.8 °F 26.6 °F 49% 30.13 in 10.0 mi SSE 15.0 mph - N/A   Clear
2:15 AM 44.6 °F 38.1 °F 26.6 °F 49% 30.13 in 10.0 mi SE 13.8 mph - N/A   Clear
2:35 AM 44.6 °F 38.4 °F 26.6 °F 49% 30.13 in 10.0 mi SE 12.7 mph 17.3 mph N/A   Clear
2:55 AM 44.6 °F 37.8 °F 26.6 °F 49% 30.13 in 10.0 mi SSE 15.0 mph - N/A   Clear
3:15 AM 44.6 °F 38.1 °F 26.6 °F 49% 30.14 in 10.0 mi SE 13.8 mph - N/A   Clear
3:35 AM 44.6 °F 38.1 °F 26.6 °F 49% 30.14 in 10.0 mi SSE 13.8 mph - N/A   Clear
3:55 AM 44.6 °F 38.8 °F 28.4 °F 53% 30.14 in 10.0 mi SE 11.5 mph - N/A   Scattered Clouds
4:15 AM 44.6 °F 38.8 °F 28.4 °F 53% 30.14 in 10.0 mi SE 11.5 mph 17.3 mph N/A   Mostly Cloudy
4:35 AM 44.6 °F 39.2 °F 28.4 °F 53% 30.14 in 10.0 mi SE 10.4 mph 17.3 mph N/A   Mostly Cloudy
4:55 AM 42.8 °F 37.5 °F 28.4 °F 57% 30.14 in 10.0 mi SE 9.2 mph - N/A   Scattered Clouds
5:15 AM 42.8 °F 38.0 °F 26.6 °F 53% 30.15 in 10.0 mi SE 8.1 mph - N/A   Partly Cloudy
5:35 AM 42.8 °F 37.5 °F 26.6 °F 53% 30.15 in 10.0 mi SE 9.2 mph - N/A   Clear
6:15 AM 42.8 °F 37.5 °F 26.6 °F 53% 30.15 in 10.0 mi SE 9.2 mph - N/A   Clear
6:35 AM 42.8 °F 36.6 °F 26.6 °F 53% 30.14 in 10.0 mi SE 11.5 mph - N/A   Clear
6:55 AM 42.8 °F 37.0 °F 26.6 °F 53% 30.14 in 10.0 mi SE 10.4 mph 19.6 mph N/A   Partly Cloudy
7:15 AM 42.8 °F 35.8 °F 26.6 °F 53% 30.13 in 10.0 mi SE 13.8 mph 18.4 mph N/A   Mostly Cloudy
7:35 AM 44.6 °F 38.4 °F 26.6 °F 49% 30.13 in 10.0 mi SE 12.7 mph 19.6 mph N/A   Scattered Clouds
7:55 AM 44.6 °F 38.8 °F 26.6 °F 49% 30.13 in 10.0 mi SE 11.5 mph 19.6 mph N/A   Mostly Cloudy
8:15 AM 44.6 °F 38.4 °F 26.6 °F 49% 30.12 in 10.0 mi SE 12.7 mph 20.7 mph N/A   Partly Cloudy
8:35 AM 44.6 °F 37.4 °F 28.4 °F 53% 30.12 in 10.0 mi SE 16.1 mph 24.2 mph N/A   Mostly Cloudy
8:55 AM 46.4 °F 39.0 °F 28.4 °F 50% 30.12 in 10.0 mi SSE 19.6 mph 28.8 mph N/A   Overcast
9:15 AM 46.4 °F 39.0 °F 28.4 °F 50% 30.12 in 10.0 mi SSE 19.6 mph 28.8 mph N/A   Overcast
9:35 AM 46.4 °F 38.7 °F 30.2 °F 53% 30.13 in 10.0 mi SSE 20.7 mph 25.3 mph N/A   Overcast
9:55 AM 48.2 °F - 30.2 °F 50% 30.12 in 10.0 mi SSE 17.3 mph 26.5 mph N/A   Overcast
10:15 AM 48.2 °F - 33.8 °F 58% 30.12 in 10.0 mi SSE 19.6 mph 27.6 mph N/A   Mostly Cloudy
10:35 AM 51.8 °F - 33.8 °F 50% 30.12 in 10.0 mi SSE 19.6 mph 31.1 mph N/A   Mostly Cloudy
10:55 AM 51.8 °F - 35.6 °F 54% 30.12 in 10.0 mi SSE 19.6 mph 28.8 mph N/A   Mostly Cloudy
11:15 AM 51.8 °F - 35.6 °F 54% 30.11 in 10.0 mi SSE 20.7 mph 25.3 mph N/A   Scattered Clouds
12:16 PM 53.6 °F - 39.2 °F 58% 30.08 in 10.0 mi SSE 15.0 mph 24.2 mph N/A   Partly Cloudy
12:35 PM 55.4 °F - 39.2 °F 54% 30.07 in 10.0 mi SSE 16.1 mph 23.0 mph N/A   Scattered Clouds
12:55 PM 57.2 °F - 41.0 °F 55% 30.05 in 10.0 mi SSE 23.0 mph 34.5 mph N/A   Scattered Clouds
1:35 PM 57.2 °F - 42.8 °F 59% 30.03 in 10.0 mi SSE 18.4 mph 24.2 mph N/A   Scattered Clouds
1:55 PM 60.8 °F - 44.6 °F 55% 30.03 in 10.0 mi SSE 20.7 mph 29.9 mph N/A   Scattered Clouds
2:35 PM 59.0 °F - 42.8 °F 55% 30.02 in 10.0 mi SSE 18.4 mph 24.2 mph N/A   Mostly Cloudy
2:55 PM 60.8 °F - 44.6 °F 55% 30.01 in 10.0 mi SE 13.8 mph 21.9 mph N/A   Scattered Clouds
3:15 PM 62.6 °F - 44.6 °F 52% 30.00 in 10.0 mi SSE 12.7 mph 20.7 mph N/A   Scattered Clouds
3:35 PM 62.6 °F - 44.6 °F 52% 29.99 in 10.0 mi SE 17.3 mph 26.5 mph N/A   Partly Cloudy
3:55 PM 62.6 °F - 44.6 °F 52% 29.99 in 10.0 mi SSE 18.4 mph 23.0 mph N/A   Partly Cloudy
4:15 PM 62.6 °F - 44.6 °F 52% 29.99 in 10.0 mi SE 12.7 mph - N/A   Scattered Clouds
4:35 PM 62.6 °F - 44.6 °F 52% 29.98 in 10.0 mi SSE 12.7 mph 20.7 mph N/A   Scattered Clouds
4:55 PM 62.6 °F - 44.6 °F 52% 29.98 in 10.0 mi SE 11.5 mph - N/A   Overcast
5:15 PM 60.8 °F - 44.6 °F 55% 29.98 in 10.0 mi SE 11.5 mph - N/A   Overcast
5:35 PM 62.6 °F - 44.6 °F 52% 29.97 in 10.0 mi SE 13.8 mph 17.3 mph N/A   Overcast
5:55 PM 62.6 °F - 44.6 °F 52% 29.97 in 10.0 mi SSE 16.1 mph - N/A   Mostly Cloudy
6:15 PM 62.6 °F - 44.6 °F 52% 29.98 in 10.0 mi SE 12.7 mph - N/A   Mostly Cloudy
6:35 PM 62.6 °F - 44.6 °F 52% 29.98 in 10.0 mi SE 12.7 mph - N/A   Overcast
6:55 PM 60.8 °F - 46.4 °F 59% 30.00 in 10.0 mi SSE 10.4 mph - N/A   Overcast
7:15 PM 62.6 °F - 46.4 °F 55% 30.00 in 10.0 mi SSE 15.0 mph - N/A   Overcast
7:35 PM 62.6 °F - 46.4 °F 55% 30.00 in 10.0 mi SSE 18.4 mph - N/A   Overcast
7:55 PM 62.6 °F - 46.4 °F 55% 30.00 in 10.0 mi SSE 17.3 mph 26.5 mph N/A   Scattered Clouds
8:15 PM 62.6 °F - 48.2 °F 59% 30.01 in 10.0 mi SSE 16.1 mph 26.5 mph N/A   Partly Cloudy
8:35 PM 62.6 °F - 48.2 °F 59% 30.02 in 10.0 mi SSE 17.3 mph 24.2 mph N/A   Scattered Clouds
8:55 PM 60.8 °F - 48.2 °F 63% 30.03 in 10.0 mi SSE 17.3 mph 20.7 mph N/A   Mostly Cloudy
9:15 PM 62.6 °F - 48.2 °F 59% 30.04 in 10.0 mi SSE 16.1 mph 27.6 mph N/A   Overcast
9:35 PM 60.8 °F - 48.2 °F 63% 30.04 in 10.0 mi SSE 16.1 mph 28.8 mph N/A   Overcast
9:55 PM 60.8 °F - 48.2 °F 63% 30.05 in 10.0 mi SSE 13.8 mph 24.2 mph N/A   Overcast
10:15 PM 60.8 °F - 48.2 °F 63% 30.05 in 10.0 mi SSE 16.1 mph 25.3 mph N/A   Overcast
10:35 PM 62.6 °F - 48.2 °F 59% 30.05 in 10.0 mi SSE 19.6 mph 26.5 mph N/A   Overcast
10:55 PM 60.8 °F - 48.2 °F 63% 30.06 in 10.0 mi South 16.1 mph 25.3 mph N/A   Overcast
11:15 PM 60.8 °F - 48.2 °F 63% 30.06 in 10.0 mi SSE 17.3 mph 23.0 mph N/A   Overcast
11:35 PM 60.8 °F - 48.2 °F 63% 30.07 in 10.0 mi South 12.7 mph 20.7 mph N/A   Overcast
11:55 PM 60.8 °F - 48.2 °F 63% 30.07 in 10.0 mi South 13.8 mph 19.6 mph N/A   Overcast